User: anonymous   Login
Location: Unspecified
(0.0000°N, 0.0000°E)
Time: 00:12:17
(UTC+00:00)
Language:

FLOCK 4G 12 - Orbit

View from above orbital plane
View from above orbital plane
View from above satellite
View from above satellite

Ground track
Ground track

The orbit is defined by the following mean orbital elements,

1 62625U          26145.14879689 +.00000000 +00000-0 +39757-3 0 00008
2 62625  97.4020 227.1104 0004965  52.7896 307.3796 15.28634230    02
Epoch (UTC): 25 May 2026 03:34:16
Eccentricity: 0.0004965
inclination: 97.4020°
perigee height: 476 km
apogee height: 483 km
right ascension of ascending node: 227.1104°
argument of perigee: 52.7896°
revolutions per day: 15.28634230
mean anomaly at epoch: 307.3796°

The dashed part of the orbit path shows where the satellite is in the earth's shadow,  

DLR